ARIANE 2 DEB, 27032

Orbit data source: Space-Track

ARIANE 2 DEB, 27032 is space debris in HEO originally from a launch on Fri, 27 Jan 1989 UTC launched from the French Guiana (FRGUI). Debris objects in space refer to the collection of defunct objects orbiting the Earth. Examples of debris include non-operational satellites, rocket bodies, and fragments generated from explosions, collisions, or faulty payload assembly.

Loading next visibility...
Identifier
27032, 1989-006M
Orbit
HEO
Country
Flag of FRFR
Related business
Manufacturer
EADS/LV
Mission
Spacecraft
Bus & Motor
Unknown
Mass
Unknown
Launch date (UTC)
1989-01-27 (37 years ago)
Launch vehicle
Unknown
Launch site
French Guiana (FRGUI)
Object type
Payload
Rocket body
Debris
Shape & HBR
Unknown shape, 0.3 m
Radar Cross Section
Medium (>0.1 m² and <1 m²)

Expand to show TLE details & history
Last TLE update: 9 months ago

TLE from 9 months ago
0 ARIANE 2 DEB
1 27032U 89006M   25280.15367454 -.00000037  00000-0  22674-3 0  9994
2 27032   7.9098 173.9218 7156059 241.8843 300.6382  2.29753533202738
Epoch: 2025-10-07T03:41Z
TLE epoch observation values (Epoch: 2025-10-07T03:41:17.480Z)
Latitude
7.84391°
Longitude
-157.61105°
Altitude
20,783.683 km
Speed
3.594 km/s
True Right ascension
18h 15m 02s
True Declination
7° 49' 54"
Sunlit
Object was in daylight at epoch
Visualization orbit readout
Latitude
Unknown
Longitude
Unknown
Altitude
Unknown
Speed
Unknown
Apparent Right ascension
Unknown
Apparent Declination
Unknown
Sunlit
N/A
Visualization observer readout
Local Sidereal Time
14:12:00
Azimuth
Unknown
Elevation
Unknown
Doppler factor
Unknown
Orbital elements
Apogee altitude
35,251.647 km
Perigee altitude
522.786 km
Semi-major axis
24,265.354 km
Eccentricity
0.71561
Inclination
7.9098°
RAAN
173.9218°
Arg. of periapsis
241.8843°
True anomaly
217.86814°
Mean anomaly
300.6382°
Eccentric anomaly
260.23147°
Mean motion
0.5742 °/min
Orbital period
626.96 mins
BSTAR
0.00022674
Loading maneuver chart data...
Computing Atmospheric mass density...
Loading historical data...
Loading historical data...
Loading historical data...
Loading historical data...
Loading historical data...
Loading historical data...
Loading historical data...

Documentation

Showing up to 5 results
|